JCSAT-13

Last updated on Nov. 19, 2019, 4:25 a.m. UTC

1 38331U 12023A   19322.86931553 -.00000353  00000-0  00000+0 0  9994
2 38331   0.0153 274.2845 0002700 330.3470 249.9676  1.00270893 27484
UTC
Height (km)
Latitude
Longitude
Inclination
Orbital Period
UTC large
Height (km)
Speed (km/s)
/
Latitude / Longitude
Inclination (degrees)
Orbital Period (minutes)
Azimuth
Elevation
Range (km)
Doppler Factor
iOS Compass Heading
iOS Angle

Next 30 passes for location: Hong Kong

Rise time Rise Azimuth (degrees) Set time Set Azimuth (degrees) Duration Max altitude (degrees)

No matching passes for this satellites